Location: Utrecht
(52.0907°N, 5.1214°E)
Time: 19:14:40
(UTC+02:00)

KKS-1 - Pass Details

Date: 01 July 2022
Orbit: 634 x 649 km, 98.2° (Epoch: 18 August)

Event Time Altitude Azimuth Distance (km) Brightness Sun altitude
Rises 23:42:13 0° 16° (NNE) 2,981 ? -10.3°
Reaches altitude 10° 23:44:28 10° 19° (NNE) 2,065 ? -10.5°
Maximum altitude 23:48:57 68° 103° (ESE) 702 ? -10.8°
Enters shadow 23:53:15 11° 186° (S) 1,985 ? -11.1°
